Creek Data

    Home     View Charts     View Raw Data     Messages

ID Distance Battery Voltage Battery Current Internal Temp Internal Humidity External Temp Solar Input rssi snr Time Stamp Record
68400 15.1 3.72 0 69 46 66 5.1 -75 8 03/09/2026 10:45 AM 51265
68399 15.1 3.72 7 67 46 68 5.1 -75 8 03/09/2026 10:30 AM 51264
68398 15.1 3.72 0 64 46 65 5.1 -75 7 03/09/2026 10:15 AM 51263
68397 15.1 3.75 7 63 46 64 5.1 -74 8 03/09/2026 10:00 AM 51262
68396 15.0 3.72 0 60 47 63 5.1 -74 8 03/09/2026 09:45 AM 51261
68395 15.0 4.01 7 57 48 62 5.1 -74 8 03/09/2026 09:30 AM 51260
68394 14.9 3.72 7 55 48 61 5.1 -75 8 03/09/2026 09:15 AM 51259
68393 14.9 3.92 8 53 48 58 5.1 -74 8 03/09/2026 09:00 AM 51258
68392 14.8 3.91 68 52 48 57 4.5 -75 8 03/09/2026 08:45 AM 51257
68391 14.8 3.90 34 50 49 54 4.5 -75 8 03/09/2026 08:30 AM 51256
68390 14.8 3.77 17 49 49 52 4.5 -75 8 03/09/2026 08:15 AM 51255
68389 14.8 3.70 13 47 50 50 4.5 -75 9 03/09/2026 08:00 AM 51254
68388 14.8 3.74 9 46 51 50 4.5 -75 8 03/09/2026 07:45 AM 51253
68387 14.8 3.61 -9 45 51 47 4.5 -75 8 03/09/2026 07:30 AM 51252
68386 14.8 3.62 -5 45 52 47 1.1 -75 8 03/09/2026 07:15 AM 51251
68385 14.8 3.62 -5 44 52 45 0 -74 8 03/09/2026 07:00 AM 51250
68384 14.8 3.62 -5 45 52 47 0 -75 8 03/09/2026 06:45 AM 51249
68383 14.8 3.62 -5 45 52 47 0 -75 8 03/09/2026 06:30 AM 51248
68382 14.8 3.62 -5 44 52 47 0.1 -75 8 03/09/2026 06:15 AM 51247
68381 14.8 3.62 -5 44 52 45 0.1 -75 8 03/09/2026 06:00 AM 51246
68380 14.8 3.62 -5 45 52 47 0 -75 9 03/09/2026 05:45 AM 51245
68379 14.8 3.63 -5 44 52 47 0 -75 8 03/09/2026 05:30 AM 51244
68378 14.8 3.63 -5 45 52 45 0.1 -74 8 03/09/2026 05:15 AM 51243
68377 14.8 3.71 -5 46 52 47 0 -75 8 03/09/2026 05:00 AM 51242
68376 14.8 3.63 -5 46 52 48 0 -75 9 03/09/2026 04:45 AM 51241